Погода в Балаханях

Россия / Республика Дагестан     42°37′57″N   46°53′34″E
темп.,
°C
ветер,
м/с
пор.,
м/с
влажн.,
%
обл.,
%
осадки,
мм/ч
давл.,
гПа
погр.,
м
22 января, пт
пт2200:00−6юз22470 0.0 103522
03:00−6юз22390 0.0 103424
06:00−6юз33310 0.0 103327
09:00−3юз22260 0.0 103370
12:00+1ююз11170 0.0 1031424
15:00+2всв11230 0.0 1029271
18:00−2ююв11330 0.0 103021
21:00−2ююз22260 0.0 103021
23 января, сб
сб2300:00−2ююз22260 0.0 102922
03:00−2юз22290 0.0 102822
06:00−2ююз12280 0.0 102822
09:000ю11250 0.0 102832
12:00+3в22270 0.0 1026323
15:00+2св21420 0.0 1024169
18:00−2зсз12560 0.0 102521
21:00−1зюз11410 0.0 102521
24 января, вс
вс2400:00−1юз11370 0.0 102422
03:00−1юз11310 0.0 102322
06:00−2юз11220 0.0 102322
09:00+1юз22160 0.0 102332
12:00+6юв01150 0.0 1021222
15:00+5всв11330 0.0 102068
18:00+1юз11280 0.0 102122
21:00+1юз22230 0.0 102122
25 января, пн
пн2500:00+1юз22270 0.0 102024
03:00+1юз322319 0.0 101924
06:00+2юз222297 0.0 101923
09:00+4юз222499 0.0 102027
12:00+8сз012236 0.0 1018201
15:00+7всв113848 0.0 101743
18:00+3ю114091 0.0 101822
21:00+3ююз223746 0.0 101822
26 января, вт
вт2600:00+2юз22380 0.0 101723
03:00+2юз223029 0.0 101724
06:00+2юз222852 0.0 101822
09:00+5юз222526 0.0 101849
12:00+10ююз112014 0.0 1016216
15:00+8св113824 0.0 101637
18:00+5зюз1138100 0.0 101622
21:00+5юз3238100 0.0 101725